• In Czech Republic
  • List of Countries
  • For 7 days
  • Water Temperature
  • Satellite Maps
  • Weather Map
  • Weather Widgets
  • user-avatar
    Login

    Hourly Weather Korkuteli

    Today, 22 September, Saturday

    Time Temperature Precipitation Wind Pressure Humidity
    00:00 +20°C° 0 mm 1 mps 675 mmHg 48%
    01:00 +20°C° 0 mm 1 mps 675 mmHg 47%
    02:00 +19°C° 0 mm 1 mps 675 mmHg 47%
    03:00 +19°C° 0 mm 1 mps 675 mmHg 47%
    04:00 +19°C° 0 mm 1 mps 675 mmHg 46%
    05:00 +18°C° 0 mm 1 mps 675 mmHg 46%
    06:00 +21°C° 0 mm 1 mps 675 mmHg 41%
    07:00 +21°C° 0 mm 0 mps 676 mmHg 36%
    08:00 +23°C° 0 mm 0 mps 676 mmHg 31%
    09:00 +26°C° 0 mm 1 mps 677 mmHg 28%
    10:00 +27°C° 0 mm 1 mps 677 mmHg 25%
    11:00 +29°C° 0 mm 1 mps 677 mmHg 23%
    12:00 +29°C° 0 mm 1 mps 677 mmHg 22%
    13:00 +30°C° 0 mm 1 mps 677 mmHg 22%
    14:00 +30°C° 0 mm 2 mps 677 mmHg 22%
    15:00 +29°C° 0 mm 2 mps 677 mmHg 24%
    16:00 +29°C° 0 mm 2 mps 676 mmHg 26%
    17:00 +28°C° 0 mm 2 mps 676 mmHg 28%
    18:00 +26°C° 0 mm 1 mps 676 mmHg 34%
    19:00 +24°C° 0 mm 1 mps 676 mmHg 40%
    20:00 +22°C° 0 mm 1 mps 676 mmHg 46%
    21:00 +22°C° 0 mm 1 mps 676 mmHg 46%
    22:00 +22°C° 0 mm 1 mps 676 mmHg 45%
    23:00 +21°C° 0 mm 1 mps 676 mmHg 45%

    Tomorrow, 23 September, Sunday

    Time Temperature Precipitation Wind Pressure Humidity
    00:00 +21°C° 0 mm 1 mps 676 mmHg 44%
    01:00 +21°C° 0 mm 1 mps 676 mmHg 43%
    02:00 +20°C° 0 mm 1 mps 676 mmHg 42%
    03:00 +20°C° 0 mm 1 mps 676 mmHg 42%
    04:00 +20°C° 0 mm 1 mps 676 mmHg 42%
    05:00 +20°C° 0 mm 1 mps 676 mmHg 42%
    06:00 +21°C° 0 mm 1 mps 676 mmHg 38%
    07:00 +23°C° 0 mm 1 mps 677 mmHg 35%
    08:00 +25°C° 0 mm 1 mps 678 mmHg 31%
    09:00 +27°C° 0 mm 1 mps 678 mmHg 28%
    10:00 +28°C° 0 mm 1 mps 678 mmHg 25%
    11:00 +30°C° 0 mm 1 mps 679 mmHg 22%
    12:00 +30°C° 0 mm 2 mps 679 mmHg 21%
    13:00 +31°C° 0 mm 2 mps 679 mmHg 20%
    14:00 +31°C° 0 mm 2 mps 678 mmHg 19%
    15:00 +31°C° 0 mm 2 mps 678 mmHg 21%
    16:00 +30°C° 0 mm 2 mps 678 mmHg 22%
    17:00 +29°C° 0 mm 2 mps 678 mmHg 24%
    18:00 +27°C° 0 mm 2 mps 678 mmHg 28%
    19:00 +25°C° 0 mm 1 mps 677 mmHg 32%
    20:00 +23°C° 0 mm 1 mps 677 mmHg 36%
    21:00 +23°C° 0 mm 1 mps 677 mmHg 36%
    22:00 +22°C° 0 mm 1 mps 677 mmHg 35%
    23:00 +22°C° 0 mm 1 mps 678 mmHg 34%

    Day after tomorrow, 24 September, Monday

    Time Temperature Precipitation Wind Pressure Humidity
    00:00 +21°C° 0 mm 1 mps 677 mmHg 34%
    01:00 +21°C° 0 mm 1 mps 677 mmHg 33%
    02:00 +21°C° 0 mm 1 mps 677 mmHg 33%
    03:00 +20°C° 0 mm 1 mps 676 mmHg 33%
    04:00 +20°C° 0 mm 1 mps 676 mmHg 33%
    05:00 +19°C° 0 mm 1 mps 676 mmHg 33%
    06:00 +22°C° 0 mm 1 mps 676 mmHg 29%
    07:00 +24°C° 0 mm 1 mps 677 mmHg 26%
    08:00 +26°C° 0 mm 1 mps 678 mmHg 23%
    09:00 +27°C° 0 mm 1 mps 678 mmHg 21%
    10:00 +29°C° 0 mm 1 mps 678 mmHg 19%
    11:00 +30°C° 0 mm 1 mps 678 mmHg 18%
    12:00 +31°C° 0 mm 2 mps 678 mmHg 18%
    13:00 +31°C° 0 mm 2 mps 678 mmHg 18%
    14:00 +31°C° 0 mm 2 mps 677 mmHg 18%
    15:00 +31°C° 0 mm 2 mps 677 mmHg 20%
    16:00 +30°C° 0 mm 2 mps 677 mmHg 22%
    17:00 +29°C° 0 mm 2 mps 676 mmHg 24%
    18:00 +27°C° 0 mm 2 mps 676 mmHg 29%
    19:00 +25°C° 0 mm 1 mps 676 mmHg 34%
    20:00 +23°C° 0 mm 1 mps 675 mmHg 39%
    21:00 +22°C° 0 mm 1 mps 675 mmHg 38%
    22:00 +22°C° 0 mm 1 mps 675 mmHg 38%
    23:00 +22°C° 0 mm 1 mps 675 mmHg 37%

    25 September, Tuesday

    Time Temperature Precipitation Wind Pressure Humidity
    00:00 +21°C° 0 mm 1 mps 675 mmHg 37%
    01:00 +21°C° 0 mm 1 mps 675 mmHg 37%
    02:00 +21°C° 0 mm 1 mps 675 mmHg 36%
    03:00 +21°C° 0 mm 1 mps 674 mmHg 36%
    04:00 +20°C° 0 mm 1 mps 674 mmHg 36%
    05:00 +20°C° 0 mm 1 mps 674 mmHg 36%
    06:00 +22°C° 0 mm 1 mps 675 mmHg 33%
    07:00 +24°C° 0 mm 1 mps 675 mmHg 29%
    08:00 +26°C° 0 mm 1 mps 676 mmHg 26%
    09:00 +27°C° 0 mm 1 mps 676 mmHg 24%
    10:00 +28°C° 0 mm 1 mps 676 mmHg 22%
    11:00 +30°C° 0 mm 1 mps 677 mmHg 19%
    12:00 +30°C° 0 mm 2 mps 676 mmHg 19%
    13:00 +31°C° 0 mm 2 mps 676 mmHg 19%
    14:00 +31°C° 0 mm 2 mps 675 mmHg 19%
    15:00 +30°C° 0 mm 2 mps 675 mmHg 22%
    16:00 +30°C° 0 mm 2 mps 675 mmHg 24%
    17:00 +29°C° 0 mm 2 mps 675 mmHg 26%
    18:00 +27°C° 0 mm 2 mps 675 mmHg 31%
    19:00 +25°C° 0 mm 1 mps 675 mmHg 36%
    20:00 +23°C° 0 mm 1 mps 675 mmHg 41%
    21:00 +21°C° 0 mm 2 mps 675 mmHg 43%
    22:00 +21°C° 0 mm 2 mps 674 mmHg 45%
    23:00 +20°C° 0 mm 2 mps 674 mmHg 48%

    26 September, Wednesday

    Time Temperature Precipitation Wind Pressure Humidity
    00:00 +20°C° 0 mm 2 mps 674 mmHg 52%
    01:00 +19°C° 0 mm 2 mps 674 mmHg 57%
    02:00 +18°C° 0 mm 3 mps 674 mmHg 62%
    03:00 +18°C° 0 mm 3 mps 674 mmHg 64%
    04:00 +17°C° 0 mm 3 mps 674 mmHg 67%
    05:00 +17°C° 0 mm 3 mps 673 mmHg 70%
    06:00 +17°C° 0 mm 3 mps 674 mmHg 67%
    07:00 +18°C° 0 mm 3 mps 674 mmHg 63%
    08:00 +19°C° 0 mm 3 mps 674 mmHg 60%
    09:00 +20°C° 0 mm 3 mps 675 mmHg 54%
    10:00 +22°C° 0 mm 4 mps 675 mmHg 48%
    11:00 +23°C° 0 mm 4 mps 675 mmHg 42%
    12:00 +23°C° 0 mm 4 mps 675 mmHg 41%
    13:00 +25°C° 0 mm 4 mps 675 mmHg 39%
    14:00 +25°C° 0 mm 4 mps 674 mmHg 38%
    15:00 +23°C° 0.1 mm 4 mps 674 mmHg 40%
    16:00 +22°C° 0.1 mm 4 mps 674 mmHg 42%
    17:00 +21°C° 0.1 mm 4 mps 674 mmHg 44%
    18:00 +20°C° 0 mm 4 mps 674 mmHg 46%
    19:00 +19°C° 0 mm 4 mps 674 mmHg 49%
    20:00 +17°C° 0 mm 4 mps 674 mmHg 51%
    21:00 +15°C° 0 mm 4 mps 673 mmHg 53%
    22:00 +14°C° 0 mm 4 mps 673 mmHg 55%
    23:00 +13°C° 0 mm 4 mps 673 mmHg 57%

    27 September, Thursday

    Time Temperature Precipitation Wind Pressure Humidity
    00:00 +13°C° 0 mm 4 mps 673 mmHg 59%
    01:00 +12°C° 0 mm 4 mps 672 mmHg 60%
    02:00 +11°C° 0 mm 4 mps 672 mmHg 62%
    03:00 +11°C° 0 mm 4 mps 672 mmHg 63%
    04:00 +10°C° 0 mm 4 mps 672 mmHg 64%
    05:00 +10°C° 0 mm 4 mps 671 mmHg 65%
    06:00 +10°C° 0 mm 4 mps 672 mmHg 62%
    07:00 +9°C° 0 mm 5 mps 672 mmHg 60%
    08:00 +10°C° 0 mm 5 mps 672 mmHg 57%
    09:00 +12°C° 0 mm 5 mps 672 mmHg 52%
    10:00 +13°C° 0 mm 6 mps 672 mmHg 48%
    11:00 +14°C° 0 mm 6 mps 672 mmHg 43%
    12:00 +14°C° 0 mm 6 mps 671 mmHg 42%
    13:00 +14°C° 0 mm 6 mps 671 mmHg 41%
    14:00 +14°C° 0 mm 6 mps 670 mmHg 40%
    15:00 +13°C° 0.2 mm 6 mps 670 mmHg 41%
    16:00 +11°C° 0.2 mm 7 mps 670 mmHg 42%
    17:00 +11°C° 0.2 mm 7 mps 669 mmHg 43%
    18:00 +10°C° 0.3 mm 7 mps 670 mmHg 48%
    19:00 +9°C° 0.3 mm 6 mps 670 mmHg 52%
    20:00 +8°C° 0.3 mm 6 mps 670 mmHg 57%
    21:00 +8°C° 1 mm 6 mps 670 mmHg 60%
    22:00 +8°C° 1 mm 6 mps 670 mmHg 63%
    23:00 +7°C° 1 mm 6 mps 670 mmHg 67%
    Show more